STARLINK-31530, 59322

Orbit data source: Space-Track

STARLINK-31530, 59322 is a payload satellite owned by SpaceX/Seattle (US) in LEO that was launched on Mon, 25 Mar 2024 UTC via an FALCON 9 launch vehicle from the Air Force Eastern Test Range (AFETR). Payload-class satellites include a variety of spacecraft equipped with specific instruments for various scientific and technological missions. These include communications satellites like Starlink; space stations such as the ISS; scientific satellites like the Hubble; Earth observation satellites from companies like Planet Labs, Umbra, and HawkEye 360; GPS; miniature CubeSats for education and research; and military/defense satellites.

Loading next visibility...
Identifier
59322, 2024-057C
Orbit
LEO
Country
Flag of USUS
Related business
Manufacturer
SpaceX/Seattle
Mission
Partially operational Commercial Communications
Bus & Motor
STARLINK V2M, Unknown motor
Mass
730 kg wet, ~700 kg dry
Launch date (UTC)
2024-03-25 (2 years ago)
Launch vehicle
FALCON 9
Launch site
Air Force Eastern Test Range (AFETR)
Object type
Payload
Rocket body
Debris
Shape & HBR
Box + 2 Pan, 17.7 m
Radar Cross Section
33.884 m², Large (>1 m²)

Expand to show TLE details & history
Last TLE update: 3 days ago

TLE from 3 days ago
0 STARLINK-31530
1 59322U 24057C   26170.37432356  .00084484  00000-0  67799-3 0  9997
2 59322  42.9891 305.4222 0027088 336.7937  23.1706 15.69527168125701
Epoch: 2026-06-19T08:59Z
TLE epoch observation values (Epoch: 2026-06-19T08:59:01.555Z)
Latitude
0.00002°
Longitude
-96.93848°
Altitude
343.25 km
Speed
7.714 km/s
True Right ascension
20h 21m 41s
True Declination
0° 00' 00"
Sunlit
Object was in full shadow at epoch
Visualization orbit readout
Latitude
Unknown
Longitude
Unknown
Altitude
Unknown
Speed
Unknown
Apparent Right ascension
Unknown
Apparent Declination
Unknown
Sunlit
N/A
Visualization observer readout
Local Sidereal Time
21:27:20
Azimuth
Unknown
Elevation
Unknown
Doppler factor
Unknown
Orbital elements
Apogee altitude
380.491 km
Perigee altitude
343.974 km
Semi-major axis
6,740.369 km
Eccentricity
0.00271
Inclination
42.9891°
RAAN
305.4222°
Arg. of periapsis
336.7937°
True anomaly
23.29312°
Mean anomaly
23.1706°
Eccentric anomaly
23.23182°
Mean motion
3.92209 °/min
Orbital period
91.79 mins
BSTAR
0.00067799
Loading maneuver chart data...
Computing Atmospheric mass density...
Loading historical data...
Loading historical data...
Loading historical data...
Loading historical data...
Loading historical data...
Loading historical data...
Loading historical data...

Documentation

Showing up to 5 results
|